"Pseudo-MPEC" for ZTF00RS

Created 2018 Jul 14 3:18:59 UT using Find_Orb

Click here for an explanation of pseudo-MPECs

 
 Astrometry: 
     ZTF00RS  C2018 07 09n2AstrometryA[A[Y[`*8_lCfF1.2AKJR6v,eII2@rDa-eB@G]K9I41
     ZTF00RS  C2018 07 09Bq6b=KOCvSvf)\+R,=rXbYe'V+(mVB5M2RD4WMX-.scj$;Pvg.^!I41
     ZTF00RS  C2018 07 09s?W%HJ5D9cVkak5#/o1(YUat,7b:uchntGx\`7Eq]-_v?ok*QJ9lI41
     ZTF00RS  C2018 07 09yE);:X$\MR)CPe^AeUXLqHjg9Nrdg?=3X'[6cbhl_rWC9vRrHIjpI41
     ZTF00RS  C2018 07 09m10A]N/kvYI#n_@0'2oyCml@EhI.9sI^WQG3vwlE`^tJe`@)30#XI41
     ZTF00RS  C2018 07 09OF'7_x1b6Bm]/iZVh4pbAEHac+NM/,/hnH@Y0V!#mdF'@4o7:WX_I41
     ZTF00RS  C2018 07 09%sH0GOs-,\O*oY:K4qrR=ys+n0EKB**;,ob6hIBKyB/nUJtCulOmI41
     ZTF00RS  C2018 07 09FHx:2D@T(JIi?1%b5!g4wv(,V)vIXiI'Acme]HH.Kk']JiLKV`ShI41
     ZTF00RS  C2018 07 09.Sy7)oLKPn4D3LF5Zredacted;qa.*+ZUa@Wnc?bV+d25V#TmO)cI41
     ZTF00RS  C2018 07 09r/%n0;#K[5tDTv`e[Jkm9!MqVAF0$d(gic[y$_$9tx8NNxm0#^WpI41
     ZTF00RS  C2018 07 09:_gpZ4^xcKA-@^Fxw@w5HKh5ETG;n`)d@qEXob)jhj0L6.#0_mYeI41
     ZTF00RS  C2018 07 09[uO!ADa$b[ua9DIC47gxc$ag4F4G1ovfOgJJOOf0$N$Iw!]ih6,FI41
     ZTF00RS  C2018 07 09wM5Ca\U0YA__b0c79)=1fc[$RI:^p7f+4MAC^C9'-V`tqT^Z5290I41
     ZTF00RS  C2018 07 09K/!7n6i3DR]Ya:QbLZKZr,J5rcyCLU4@EScX/-0/kiq_u39!md[eI41
     ZTF00RS  C2018 07 09p+TCn.f@cU:..$f=eQ'0txooe.pXMRww7,@`:a#u1$SQu(OWTxL?I41
     ZTF00RS  C2018 07 09-CQ4OO1@[Ru9aR/6=3inbaQej.si49P1Dd:su[.';)@V5)lR5!%QI41
     ZTF00RS  C2018 07 09,DAn=d(0::UX.(.C75_t0;09b0w=i(I3Jq*ho)n$;,IFw__rIT\bI41
     ZTF00RS  C2018 07 09xLnp;vs(k3iE\Lm`goF7oxP.JSc,o%^BseeMT]J(fJMSmri?e)-4I41
     ZTF00RS  C2018 07 09Ox^'(lQ[/]Pivr*0@2Pk_)^1LXvUe1^cIfE;=%U0nQ]0[mQHCv-4I41
     ZTF00RS  C2018 07 09?,loaWZEt)1syOy$*dr5G\pn3kcKxyWjnO=P2)J1X#ig;Qhx!6etI41
     ZTF00RS  C2018 07 09'O,'ycKG[MPSXc\(Nn+dMYoo1p,wjgDt-C7XEM,uZd^F30++NXdCI41
     ZTF00RS |C2018 07 12(v94M^US()`AKH$F(B_xhrbNW6`uYhKLVx02Qm;ks6dx8Bxte]r-807
     ZTF00RS |C2018 07 12/Z[fJBb)d30A2@S=gH/:_M8QokLZNxB^YWJ]SfAQ_fKl)9nl--?_807
     ZTF00RS |C2018 07 145k1I?/EWBW(0n!(HRA4W3p(dX5*XNsI_vBIvkS\KcPlSX3gj!_:]807
     ZTF00RS |C2018 07 14JrL.P!'S`WvcSv/,X4pb;;M)]=*BXglP:';[4Um0?F`NSb#[#sP+807
     ZTF00RS |C2018 07 143HaVNWBW87lLm_7f,wn9pVpQ4C'?EoA,KH5'%W^qIQwp64\NEOCP807

Station data:
(807) Cerro Tololo Observatory, La Serena  (S30.169136 W70.805900)  Chile.
   1.5-m Ritchey-Chrétien.
(I41) Palomar Mountain--ZTF  (N33.357340 W116.859780)  US/California. 1.2-m
   f/2.44 Oschin Schmidt + CCD.

Orbital elements:  ZTF00RS
   Perihelion 2018 Sep 24.184499 +/- 0.0925 TT =  4:25:40 (JD 2458385.684499)
Epoch 2018 Jul 14.0 TT = JDT 2458313.5   Earth MOID: 0.4881   AutoNEOCP
M 343.40808 +/- 0.22                (J2000 ecliptic)
n   0.22985420 +/- 0.00286          Peri.  230.39768 +/- 0.13
a   2.63937486 +/- 0.0219           Node   101.89258 +/- 0.020
e   0.4734391 +/- 0.00344           Incl.   31.32329 +/- 0.16
P   4.29                   H 19.1   G  0.15   U  8.8  
q 1.38979153 +/- 0.00249    Q 3.88895819 +/- 0.0408
From 26 observations 2018 July 9-14; mean residual 0".16
Residuals in arcseconds: 
180709 I41  .01+  .11+    180709 I41  .29+  .17-    180709 I41  .02+  .01+    
180709 I41  .14-  .07+    180709 I41  .02-  .00     180709 I41  .02-  .03-    
180709 I41  .03-  .18+    180709 I41  .07+  .33-    180709 I41  .20-  .22+    
180709 I41  .23+  .29-    180709 I41  .09+  .17-    180712 807  .23+  .29+    
180709 I41  .05+  .02-    180709 I41  .23+  .15+    180712 807  .23-  .30-    
180709 I41  .01+  .18+    180709 I41  .16-  .12+    180714 807  .00   .05+    
180709 I41  .18-  .28-    180709 I41  .15+  .12+    180714 807  .13-  .05+    
180709 I41  .02-  .09+    180709 I41  .15-  .15+    180714 807  .13+  .09-    
180709 I41  .17-  .07-    180709 I41  .07-  .02-    

Ephemerides (geocentric):
Date (UTC) HH   RA              Dec         delta   r     elong  mag " sig PA
---- -- -- --  -------------   -----------  ------ ------ -----  --- ---- ---
2018 07 14 03  17 56 00.832   -25 59 03.51  .57093 1.5596 157.6 19.7  .06 134
2018 07 14 04  17 55 56.674   -26 01 06.17  .57089 1.5594 157.5 19.7  .07 131
2018 07 14 05  17 55 52.517   -26 03 08.83  .57086 1.5592 157.4 19.7  .08 129
2018 07 14 06  17 55 48.361   -26 05 11.49  .57083 1.5590 157.4 19.7  .09 128
2018 07 14 07  17 55 44.206   -26 07 14.15  .57080 1.5588 157.3 19.7  .09 126
2018 07 14 08  17 55 40.052   -26 09 16.81  .57077 1.5587 157.3 19.7  .10 125
2018 07 14 09  17 55 35.899   -26 11 19.48  .57074 1.5585 157.2 19.7  .11 124
2018 07 14 10  17 55 31.746   -26 13 22.14  .57071 1.5583 157.2 19.7  .12 123
2018 07 14 11  17 55 27.595   -26 15 24.80  .57068 1.5581 157.1 19.7  .12 122
2018 07 14 12  17 55 23.444   -26 17 27.46  .57066 1.5580 157.0 19.7  .13 122
2018 07 14 13  17 55 19.295   -26 19 30.12  .57063 1.5578 157.0 19.7  .14 121
2018 07 14 14  17 55 15.146   -26 21 32.78  .57060 1.5576 156.9 19.7  .15 120
2018 07 14 15  17 55 10.998   -26 23 35.43  .57057 1.5574 156.9 19.7  .16 120
2018 07 14 16  17 55 06.852   -26 25 38.09  .57055 1.5572 156.8 19.7  .17 119
2018 07 14 17  17 55 02.706   -26 27 40.74  .57052 1.5571 156.7 19.7  .18 119
2018 07 14 18  17 54 58.562   -26 29 43.39  .57050 1.5569 156.7 19.7  .19 118
2018 07 14 19  17 54 54.418   -26 31 46.04  .57047 1.5567 156.6 19.7  .20 118
2018 07 14 20  17 54 50.276   -26 33 48.68  .57045 1.5565 156.6 19.7  .20 117
2018 07 14 21  17 54 46.134   -26 35 51.32  .57043 1.5564 156.5 19.7  .21 117
2018 07 14 22  17 54 41.994   -26 37 53.96  .57040 1.5562 156.5 19.7  .22 116
2018 07 14 23  17 54 37.855   -26 39 56.59  .57038 1.5560 156.4 19.7  .23 116
2018 07 15 00  17 54 33.717   -26 41 59.22  .57036 1.5558 156.3 19.7  .24 116
2018 07 15 01  17 54 29.580   -26 44 01.85  .57034 1.5557 156.3 19.7  .25 115
2018 07 15 02  17 54 25.444   -26 46 04.47  .57031 1.5555 156.2 19.7  .26 115
2018 07 15 03  17 54 21.309   -26 48 07.08  .57029 1.5553 156.2 19.7  .27 115
2018 07 15 04  17 54 17.176   -26 50 09.69  .57027 1.5551 156.1 19.7  .29 114
2018 07 15 05  17 54 13.044   -26 52 12.29  .57025 1.5550 156.0 19.7  .30 114
2018 07 15 06  17 54 08.913   -26 54 14.89  .57024 1.5548 156.0 19.7  .31 114
2018 07 15 07  17 54 04.783   -26 56 17.48  .57022 1.5546 155.9 19.7  .32 114
2018 07 15 08  17 54 00.654   -26 58 20.07  .57020 1.5544 155.9 19.7  .33 113
2018 07 15 09  17 53 56.527   -27 00 22.65  .57018 1.5542 155.8 19.7  .34 113
2018 07 15 10  17 53 52.401   -27 02 25.22  .57016 1.5541 155.7 19.7  .35 113
2018 07 15 11  17 53 48.276   -27 04 27.79  .57015 1.5539 155.7 19.7  .36 113
2018 07 15 12  17 53 44.152   -27 06 30.35  .57013 1.5537 155.6 19.7  .37 113
2018 07 15 13  17 53 40.030   -27 08 32.90  .57012 1.5535 155.6 19.7  .39 112
2018 07 15 14  17 53 35.909   -27 10 35.44  .57010 1.5534 155.5 19.7  .40 112
2018 07 15 15  17 53 31.789   -27 12 37.97  .57009 1.5532 155.5 19.7  .41 112
2018 07 15 16  17 53 27.671   -27 14 40.50  .57007 1.5530 155.4 19.7  .42 112
2018 07 15 17  17 53 23.554   -27 16 43.01  .57006 1.5528 155.3 19.7  .44 111
2018 07 15 18  17 53 19.439   -27 18 45.52  .57004 1.5527 155.3 19.7  .45 111
2018 07 15 19  17 53 15.325   -27 20 48.02  .57003 1.5525 155.2 19.7  .46 111
2018 07 15 20  17 53 11.212   -27 22 50.51  .57002 1.5523 155.2 19.7  .47 111
2018 07 15 21  17 53 07.100   -27 24 52.99  .57001 1.5521 155.1 19.7  .49 111
2018 07 15 22  17 53 02.991   -27 26 55.46  .57000 1.5520 155.0 19.8  .50 111
2018 07 15 23  17 52 58.882   -27 28 57.92  .56999 1.5518 155.0 19.8  .51 110
2018 07 16 00  17 52 54.775   -27 31 00.36  .56998 1.5516 154.9 19.8  .53 110
2018 07 16 01  17 52 50.670   -27 33 02.80  .56997 1.5514 154.9 19.8  .54 110
2018 07 16 02  17 52 46.566   -27 35 05.23  .56996 1.5513 154.8 19.8  .55 110